Location: Sternwarte auf dem Internationalen Platz Vogelsang IP
(50.5721°N, 6.4398°E)
Time: 17:02:00
(UTC+01:00)

RS-44 - Visible Passes

Search period start: 18 January 2026 00:00
Search period end: 28 January 2026 00:00
Orbit: 1174 x 1511 km, 82.5° (Epoch: 17 January)

Date Brightness Start Highest point End Pass type
(mag) Time Alt. Az. Time Alt. Az. Time Alt. Az.
18 Jan ? 06:39:06 10° NNE 06:41:48 12° NE 06:44:28 10° ENE visible
19 Jan ? 07:01:40 10° NNE 07:06:23 18° NE 07:11:03 10° E visible
20 Jan ? 07:24:53 10° N 07:30:47 26° ENE 07:36:37 10° ESE visible
22 Jan ? 06:20:16 10° NNE 06:23:34 13° NE 06:26:51 10° ENE visible
23 Jan ? 06:43:03 10° N 06:48:05 20° NE 06:53:06 10° E visible
24 Jan ? 07:06:19 10° N 07:12:25 28° ENE 07:18:31 10° ESE visible
25 Jan ? 07:29:47 10° N 07:36:33 42° ENE 07:43:21 10° SE visible
25 Jan ? 22:22:04 10° N 22:22:04 10° N 22:22:09 10° N visible
26 Jan ? 06:01:28 10° NNE 06:05:18 15° NE 06:09:08 10° E visible
26 Jan ? 22:45:17 12° N 22:45:17 12° N 22:45:45 10° N visible
27 Jan ? 06:24:25 10° N 06:29:46 22° ENE 06:35:08 10° ESE visible
27 Jan ? 21:15:54 11° NNE 21:15:54 11° NNE 21:16:06 10° NNE visible
27 Jan ? 23:08:27 13° N 23:08:27 13° N 23:09:13 10° N visible
